User: anonymous   Login
Location: Saluda
(35.2377°N, 82.3468°W)
Time: 20:57:43
(UTC+00:00)
Language:

Transit 2A Rocket - Orbit

View from above orbital plane
View from above orbital plane
View from above satellite
View from above satellite

Ground track
Ground track

The orbit data is extracted from the following two-line orbital elements,

1 00047U 60007C   22273.44760396  .00000321  00000-0  97137-4 0  9996
2 00047  66.6651  81.9658 0220743  51.1508 310.9067 14.42428012255082
Epoch (UTC): 30 September 2022 10:44:32
Eccentricity: 0.0220743
inclination: 66.6651°
perigee height: 593 km
apogee height: 908 km
right ascension of ascending node: 81.9658°
argument of perigee: 51.1508°
revolutions per day: 14.42428012
mean anomaly at epoch: 310.9067°
orbit number at epoch: 25508

The dashed part of the orbit path shows where the satellite is in the earth's shadow,  

DLR